SCP
1 1 1 1 1 1 1 1 0 0 0 0 0 0 0 0 0 0 0 0 0 0 0 0 0 0 0 0 0 0 0 0 0 0 0 0 0 0 0 0 0 0 0
1 1 0 0 0 1 1 0 0 0 0 0 0 0 0 0 0 0 0 0 0 0 0 0 0 0 0 0 0 0 0 0 0 0 0 0 0 0 0 0 0 0 0
1 1 0 0 0 0 0 0 0 0 0 0 0 0 0 0 0 0 0 0 0 0 0 0 0 0 0 0 0 0 0 0 0 0 0 0 0 0 0 0 0 0 0
1 1 0 0 0 0 0 0 0 0 0 0 0 0 0 0 0 0 0 0 0 0 0 0 0 0 0 0 0 0 0 0 0 0 0 0 0 0 0 0 0 0 0
1 1 1 0 0 0 0 0 0 0 0 0 0 0 0 0 0 0 0 0 0 0 0 0 0 0 0 0 0 0 0 0 0 0 0 0 0 0 0 0 0 0 0
1 1 1 1 0 0 0 0 0 0 0 0 0 0 0 0 0 0 0 0 0 0 0 0 0 0 0 0 0 0 0 0 0 0 0 0 0 0 0 0 0 0 0
1 1 1 1 1 1 0 0 0 0 0 0 0 0 0 0 0 0 0 0 0 0 0 0 0 0 0 0 0 0 0 0 0 0 0 0 0 0 0 0 0 0 0
1 1 1 1 1 1 0 0 0 0 0 0 0 0 0 0 0 0 0 0 0 0 0 0 0 0 0 0 0 0 0 0 0 0 0 0 0 0 0 0 0 0 0
1 1 1 1 1 1 0 0 0 0 0 0 0 0 0 0 0 0 0 0 0 0 0 0 0 0 0 0 0 0 0 0 0 0 0 0 0 0 0 0 0 0 0
1 1 1 1 1 0 0 0 0 0 0 0 0 0 0 0 0 0 0 0 0 0 0 0 0 0 0 0 0 0 0 0 0 0 0 0 0 0 0 0 0 0 0
1 1 1 1 1 0 0 0 0 0 0 0 0 0 0 0 0 0 0 0 0 0 0 0 0 0 0 0 0 0 0 0 0 0 0 0 0 0 0 0 0 0 0
1 1 1 1 1 1 0 0 0 0 0 0 0 0 0 0 0 0 0 0 0 0 0 0 0 0 0 0 0 0 0 0 0 0 0 0 0 0 0 0 0 0 0
1 1 1 1 1 1 1 0 0 0 0 0 0 0 0 0 0 0 0 0 0 0 0 0 0 0 0 0 0 0 0 0 0 0 0 0 0 0 0 0 0 0 0
1 1 1 1 1 1 1 0 0 0 0 0 0 0 0 0 0 0 0 0 0 0 0 0 0 0 0 0 0 0 0 0 0 0 0 0 0 0 0 0 0 0 0
1 1 1 1 1 1 1 1 0 0 0 0 0 0 0 0 0 0 0 0 0 0 0 0 0 0 0 0 0 0 0 0 0 0 0 0 0 0 0 0 0 0 0
1 1 1 1 1 1 1 1 1 0 0 0 0 0 0 0 0 0 0 0 0 0 0 0 0 0 0 0 0 0 0 0 0 0 0 0 0 0 0 0 0 0 0
1 1 1 1 1 1 1 1 1 1 0 0 1 1 0 0 0 0 0 0 0 0 0 0 0 0 0 0 0 0 0 0 0 0 0 0 0 0 0 0 0 0 0
0 0 0 0 1 1 1 1 1 1 1 1 1 1 1 0 0 0 0 0 0 0 0 0 0 0 0 0 0 0 0 0 0 0 0 0 0 0 0 0 0 0 0
0 0 0 0 0 0 1 1 1 1 1 1 1 1 1 0 0 0 0 0 0 0 0 0 0 0 0 0 0 0 0 0 0 0 0 0 0 0 0 0 0 0 0
0 0 0 0 0 0 0 0 0 0 0 0 0 1 1 0 0 0 0 0 0 0 0 0 0 0 0 0 0 0 0 0 0 0 0 0 0 0 0 0 0 0 0
0 0 0 0 0 0 0 0 0 0 0 0 0 0 0 0 0 0 0 0 0 0 0 0 0 0 0 0 0 0 0 0 0 0 0 0 0 0 0 0 0 0 0
0 0 0 0 0 0 0 0 0 0 0 0 0 0 0 0 0 0 0 0 0 0 0 0 0 0 0 0 0 0 0 0 0 0 0 0 0 0 0 0 0 0 0
0 0 0 0 0 0 0 0 0 0 0 0 0 0 0 0 0 0 0 0 0 0 0 0 0 0 0 0 0 0 0 0 0 0 0 0 0 0 0 0 0 0 0
0 0 0 0 0 0 0 0 0 0 0 0 0 0 0 0 0 0 0 0 0 0 0 0 0 0 0 0 0 0 0 0 0 0 0 0 0 0 0 0 0 0 0
0 0 0 0 0 0 0 0 0 0 0 0 0 0 0 0 0 0 0 0 0 0 0 0 0 0 0 0 0 0 0 0 0 0 0 0 0 0 0 0 0 0 0
0 0 0 0 0 0 0 0 0 0 0 0 0 0 0 0 0 0 0 0 0 0 0 0 0 0 0 0 0 0 0 0 0 0 0 0 0 0 0 0 0 0 0
Wind_Speed
5 4 4 5 6 6 6 6 6 5 5 4 4 4 4 3 2 3 5 6 8 8 6 7 6 6 6 6 7 4 4 2 2 4 3 4 4 4 3 3 3 4 5
5 4 4 3 4 5 5 5 5 4 4 3 2 2 2 1 2 2 4 6 7 8 7 8 7 6 6 7 6 5 3 2 3 5 4 2 3 4 3 2 4 5 5
9 7 5 3 4 5 6 7 7 6 5 3 1 1 2 2 2 1 2 4 7 8 8 8 7 7 6 7 7 6 6 4 2 3 5 5 4 1 2 2 2 5 5
8 8 8 6 5 4 5 6 7 6 5 4 3 2 2 2 2 1 1 2 6 7 8 7 7 7 6 8 9 8 4 6 4 3 1 2 5 5 2 2 2 3 5
8 8 9 9 7 6 5 5 6 6 5 6 5 4 3 2 3 3 3 4 3 3 4 5 5 5 4 5 5 6 5 4 5 4 3 2 1 3 5 3 1 2 2
6 6 7 8 7 6 6 5 5 5 6 6 6 6 7 7 7 6 5 3 3 2 1 2 3 4 3 4 4 5 6 6 5 4 4 4 4 4 4 4 4 2 1
7 7 8 8 8 9 8 6 6 6 5 5 5 6 7 8 9 8 5 4 3 2 1 0 2 2 4 4 4 5 5 7 6 6 4 3 3 4 4 5 4 3 2
8 8 9 9 9 10 9 7 7 6 7 6 6 6 7 4 5 7 6 6 5 4 2 1 2 3 3 3 5 4 5 5 6 7 6 4 4 4 5 6 6 4 1
8 9 9 9 9 9 9 8 8 6 7 7 6 6 6 6 7 7 6 5 6 6 6 5 4 5 5 5 5 4 5 5 5 5 6 5 4 4 4 6 8 8 5
7 7 8 9 9 9 8 7 7 7 6 6 6 6 6 6 7 7 6 5 4 4 4 5 6 7 7 7 6 5 6 6 6 5 6 6 4 4 4 5 5 5 5
9 8 8 8 8 7 7 7 6 5 5 6 6 7 7 7 7 7 7 6 6 7 7 7 7 7 6 6 5 6 7 7 6 6 6 6 7 6 4 4 5 4 4
9 8 8 7 7 8 7 7 5 5 5 5 5 6 6 7 7 7 7 8 7 7 7 6 6 6 5 5 6 6 7 7 8 8 8 7 7 8 6 6 7 6 4
8 7 7 8 8 8 8 7 7 6 5 5 5 4 5 6 7 8 7 7 6 4 3 4 5 5 5 5 6 6 6 8 9 8 9 8 8 8 6 7 8 6 5
10 10 9 9 8 9 9 9 8 8 7 6 6 5 5 5 5 5 5 4 3 3 3 3 3 4 6 7 6 7 7 8 8 7 8 8 9 9 9 8 8 8 7
9 11 11 10 9 9 10 10 9 9 8 7 7 7 6 5 5 4 4 4 3 4 3 2 2 3 4 6 7 7 8 8 7 6 7 9 11 13 11 9 9 9 8
10 11 10 9 9 11 11 11 10 10 9 10 10 8 7 7 7 6 6 5 4 3 2 2 1 3 3 6 10 8 7 7 7 7 7 7 10 13 16 15 17 16 14
6 5 5 5 5 6 8 10 10 9 10 11 10 9 8 8 8 7 5 5 4 2 1 1 1 2 4 6 7 10 6 6 6 7 6 5 6 9 9 13 19 19 21
6 5 5 4 2 0 3 6 6 8 10 10 10 10 9 9 8 8 7 6 4 3 2 2 3 3 4 5 5 7 5 5 6 6 6 6 6 6 7 6 8 9 12
7 6 5 5 4 4 2 3 4 5 7 8 8 9 10 10 9 9 8 5 4 3 3 3 3 3 4 5 4 7 4 4 5 5 5 6 6 9 10 7 7 8 7
7 7 6 6 6 4 5 7 5 4 2 5 7 9 10 11 10 8 6 4 3 4 3 4 4 4 4 5 6 8 3 4 4 4 5 9 9 10 12 8 8 9 8
7 7 7 6 5 4 7 7 6 5 2 2 2 4 5 7 7 6 5 4 4 4 4 4 3 3 4 5 7 9 4 5 5 5 4 4 10 11 11 8 7 9 7
6 6 6 5 4 5 7 7 4 3 4 4 4 3 3 4 5 6 5 5 5 5 4 3 3 2 2 4 6 9 7 6 5 4 4 4 8 10 11 7 6 6 6
5 4 5 4 3 3 5 6 4 4 5 4 3 2 3 3 3 4 5 4 4 3 3 3 3 3 2 3 6 8 9 9 4 3 6 6 6 8 7 8 9 7 4
5 4 4 3 2 2 3 4 4 4 4 3 2 2 2 2 2 2 3 4 4 3 3 3 3 3 2 2 2 3 4 6 5 4 6 7 5 3 3 5 5 3 4
5 5 5 4 4 4 3 2 3 4 3 3 3 3 2 2 2 2 2 2 3 4 4 3 3 3 3 5 8 7 5 5 5 6 3 2 2 2 2 2 2 3 3
5 4 4 4 3 3 4 3 4 4 3 2 2 2 2 2 2 3 3 7 3 4 5 4 3 1 2 4 9 11 10 11 13 7 3 4 4 4 4 4 3 3 3
Wind_Direction
108 86 71 99 121 136 144 154 157 162 153 150 157 170 198 207 202 217 205 170 163 171 154 135 145 154 159 158 144 126 143 120 111 94 61 21 23 49 60 82 92 91 89
127 109 91 102 132 150 159 159 167 167 166 160 152 149 165 185 197 208 193 169 161 157 147 143 149 152 142 134 134 136 141 142 152 132 111 66 8 358 17 52 98 100 96
153 148 141 138 145 156 164 172 180 183 178 170 128 80 74 50 79 116 186 163 147 147 148 150 144 146 147 151 155 164 158 159 184 160 140 147 180 210 4 18 71 102 99
154 156 153 156 168 172 161 158 175 192 195 185 187 171 154 168 157 148 221 129 132 144 155 156 152 152 156 167 176 172 164 153 169 194 166 149 155 146 141 37 30 91 107
171 170 165 165 169 166 167 170 176 192 195 196 197 166 148 139 121 105 83 86 97 118 151 158 153 157 158 178 187 171 170 167 171 172 157 138 124 125 133 152 163 54 64
197 187 166 158 164 169 172 174 180 194 191 189 178 162 158 149 136 117 104 105 111 89 94 177 168 158 154 173 193 189 192 193 191 188 166 162 161 172 145 144 152 133 104
192 186 173 171 170 174 178 175 174 184 187 186 182 172 172 167 152 140 136 139 126 100 52 157 198 181 181 182 178 192 206 200 198 199 196 186 187 161 140 128 137 131 141
189 189 186 181 176 177 178 174 174 178 181 186 190 183 179 163 139 143 153 156 147 148 166 190 245 236 216 207 185 186 198 193 200 200 192 190 200 174 154 149 146 135 143
192 192 185 179 176 176 180 180 178 181 181 181 178 178 174 156 149 153 159 159 161 163 164 180 219 231 222 216 193 196 198 189 196 197 189 188 193 190 175 162 158 149 163
196 190 180 178 179 180 183 185 186 190 186 177 177 180 180 168 160 160 163 164 169 177 185 200 216 219 215 209 199 198 203 203 211 205 198 187 180 185 172 167 159 142 145
198 190 184 178 170 169 174 180 185 187 193 188 180 180 184 176 167 170 175 177 185 193 208 215 223 225 225 225 217 211 201 205 215 216 205 194 172 177 178 169 163 149 137
194 184 177 170 164 165 167 166 164 170 190 193 183 179 175 173 177 184 189 189 189 194 205 209 214 221 224 224 216 214 204 205 212 213 200 197 180 178 180 176 178 170 149
183 173 171 176 177 172 169 168 166 167 173 174 169 160 158 167 183 191 193 193 190 198 210 210 214 224 230 225 210 203 203 211 217 207 196 197 186 183 179 180 177 175 166
179 178 185 190 187 179 176 176 178 174 170 170 169 173 174 171 181 191 199 202 202 221 238 234 228 231 233 229 219 206 209 213 214 203 197 197 195 190 182 182 176 167 158
183 189 195 198 193 186 185 186 185 180 175 178 188 193 187 183 187 205 217 217 215 221 219 204 212 229 226 222 212 203 204 204 204 198 197 202 200 193 186 184 179 167 159
195 200 204 202 201 196 193 194 193 188 182 189 202 198 184 186 194 205 210 212 212 205 189 198 237 258 252 241 220 204 200 197 197 199 200 206 205 202 196 193 186 177 168
181 188 198 203 212 215 205 203 201 189 191 200 203 197 189 189 195 196 192 196 195 186 188 224 250 270 276 268 242 223 202 193 191 185 178 184 181 182 189 199 194 190 183
126 116 107 94 73 113 198 202 192 187 196 201 198 193 190 192 187 184 189 191 184 193 217 253 271 276 274 252 234 208 179 171 176 171 168 166 161 164 163 168 182 190 191
128 119 112 100 60 34 49 115 151 184 197 200 192 191 189 191 186 189 192 186 182 200 216 230 245 253 264 243 196 146 136 139 149 156 159 165 171 182 167 156 166 178 192
106 105 99 84 62 37 61 78 85 105 182 210 199 192 191 189 187 188 183 180 186 209 229 232 230 233 245 240 202 154 139 146 148 150 173 181 174 175 172 171 172 183 191
109 101 86 73 61 67 79 73 69 69 70 86 132 179 191 190 183 177 170 181 191 205 225 224 226 230 240 248 210 169 158 163 158 159 174 193 173 161 165 171 187 199 183
112 105 96 85 73 91 96 89 84 89 83 77 80 98 134 178 182 168 167 175 176 183 190 198 222 242 250 237 220 188 177 168 163 170 172 180 173 158 152 156 176 180 167
131 129 124 114 99 112 120 123 153 137 108 92 81 84 102 115 143 158 160 159 161 162 176 187 211 237 253 254 231 196 177 169 157 162 166 171 181 171 163 172 180 179 179
150 148 143 155 205 210 168 160 167 144 117 113 113 113 112 115 141 156 157 154 164 169 183 196 209 219 223 224 199 167 156 151 134 123 129 123 133 153 173 179 187 190 202
167 159 169 200 236 240 227 201 158 127 103 95 115 119 122 115 96 90 89 174 185 177 177 199 199 196 217 223 198 176 171 161 144 126 110 115 131 169 209 210 194 185 193
173 177 196 218 251 231 204 179 150 133 119 97 108 124 120 100 99 109 79 50 71 118 135 138 138 168 252 245 207 193 175 157 148 132 151 169 182 197 208 212 205 196 198